• In Hungary
  • List of Countries
  • For 7 days
  • Water Temperature
  • Satellite Maps
  • Weather Map
  • News
  • Weather Widgets
  • user-avatar
    Login

    Hourly Weather Berat

    Today, 20 November, Monday

    Time Temperature Precipitation Wind Pressure Humidity
    00:00 +10°C° 0.5 mm 3 mps 741 mmHg 90%
    01:00 +9°C° 0 mm 3 mps 740 mmHg 91%
    02:00 +9°C° 1.1 mm 3 mps 741 mmHg 90%
    03:00 +8°C° 1.1 mm 4 mps 741 mmHg 89%
    04:00 +8°C° 1.1 mm 4 mps 741 mmHg 88%
    05:00 +8°C° 0.7 mm 4 mps 741 mmHg 88%
    06:00 +8°C° 0.7 mm 3 mps 742 mmHg 88%
    07:00 +8°C° 0 mm 3 mps 742 mmHg 88%
    08:00 +9°C° 0.2 mm 3 mps 742 mmHg 80%
    09:00 +10°C° 0.2 mm 4 mps 743 mmHg 72%
    10:00 +10°C° 0.2 mm 4 mps 743 mmHg 64%
    11:00 +11°C° 0 mm 4 mps 744 mmHg 60%
    12:00 +11°C° 0 mm 4 mps 744 mmHg 57%
    13:00 +10°C° 0 mm 5 mps 744 mmHg 53%
    14:00 +10°C° 0 mm 4 mps 745 mmHg 57%
    15:00 +10°C° 0 mm 4 mps 745 mmHg 60%
    16:00 +9°C° 0 mm 3 mps 745 mmHg 63%
    17:00 +8°C° 0 mm 3 mps 746 mmHg 65%
    18:00 +7°C° 0 mm 2 mps 746 mmHg 67%
    19:00 +6°C° 0 mm 2 mps 747 mmHg 69%
    20:00 +6°C° 0 mm 2 mps 747 mmHg 70%
    21:00 +6°C° 0 mm 2 mps 748 mmHg 70%
    22:00 +5°C° 0 mm 2 mps 748 mmHg 70%
    23:00 +6°C° 0 mm 1 mps 748 mmHg 69%

    Tomorrow, 21 November, Tuesday

    Time Temperature Precipitation Wind Pressure Humidity
    00:00 +6°C° 0 mm 1 mps 748 mmHg 68%
    01:00 +6°C° 0 mm 1 mps 748 mmHg 67%
    02:00 +6°C° 0 mm 1 mps 748 mmHg 65%
    03:00 +6°C° 0 mm 1 mps 748 mmHg 63%
    04:00 +5°C° 0 mm 2 mps 748 mmHg 61%
    05:00 +6°C° 0 mm 1 mps 748 mmHg 59%
    06:00 +6°C° 0 mm 1 mps 748 mmHg 57%
    07:00 +6°C° 0 mm 1 mps 749 mmHg 56%
    08:00 +8°C° 0 mm 1 mps 749 mmHg 49%
    09:00 +10°C° 0 mm 1 mps 749 mmHg 43%
    10:00 +12°C° 0 mm 1 mps 749 mmHg 36%
    11:00 +12°C° 0 mm 1 mps 749 mmHg 36%
    12:00 +13°C° 0 mm 2 mps 748 mmHg 36%
    13:00 +13°C° 0 mm 2 mps 748 mmHg 36%
    14:00 +12°C° 0 mm 2 mps 748 mmHg 41%
    15:00 +11°C° 0 mm 1 mps 748 mmHg 47%
    16:00 +10°C° 0 mm 1 mps 748 mmHg 53%
    17:00 +9°C° 0 mm 1 mps 748 mmHg 53%
    18:00 +9°C° 0 mm 1 mps 749 mmHg 54%
    19:00 +8°C° 0 mm 1 mps 749 mmHg 54%
    20:00 +8°C° 0 mm 1 mps 749 mmHg 54%
    21:00 +8°C° 0 mm 1 mps 749 mmHg 53%
    22:00 +8°C° 0 mm 1 mps 749 mmHg 53%
    23:00 +8°C° 0 mm 1 mps 749 mmHg 53%

    Day after tomorrow, 22 November, Wednesday

    Time Temperature Precipitation Wind Pressure Humidity
    00:00 +8°C° 0 mm 1 mps 749 mmHg 52%
    01:00 +7°C° 0 mm 1 mps 749 mmHg 52%
    02:00 +7°C° 0 mm 1 mps 749 mmHg 52%
    03:00 +7°C° 0 mm 1 mps 749 mmHg 52%
    04:00 +7°C° 0 mm 1 mps 749 mmHg 52%
    05:00 +8°C° 0 mm 1 mps 749 mmHg 53%
    06:00 +8°C° 0 mm 1 mps 749 mmHg 54%
    07:00 +8°C° 0 mm 1 mps 749 mmHg 55%
    08:00 +10°C° 0 mm 1 mps 749 mmHg 52%
    09:00 +12°C° 0 mm 1 mps 749 mmHg 50%
    10:00 +14°C° 0 mm 1 mps 749 mmHg 47%
    11:00 +14°C° 0 mm 1 mps 749 mmHg 48%
    12:00 +15°C° 0 mm 1 mps 749 mmHg 48%
    13:00 +16°C° 0 mm 2 mps 748 mmHg 49%
    14:00 +14°C° 0 mm 1 mps 748 mmHg 55%
    15:00 +13°C° 0 mm 1 mps 748 mmHg 61%
    16:00 +12°C° 0 mm 1 mps 748 mmHg 68%
    17:00 +11°C° 0 mm 1 mps 749 mmHg 69%
    18:00 +11°C° 0 mm 1 mps 749 mmHg 71%
    19:00 +10°C° 0 mm 1 mps 749 mmHg 73%
    20:00 +10°C° 0 mm 1 mps 749 mmHg 72%
    21:00 +10°C° 0 mm 1 mps 749 mmHg 71%
    22:00 +10°C° 0 mm 1 mps 749 mmHg 70%
    23:00 +10°C° 0 mm 1 mps 749 mmHg 70%

    23 November, Thursday

    Time Temperature Precipitation Wind Pressure Humidity
    00:00 +10°C° 0 mm 1 mps 749 mmHg 69%
    01:00 +10°C° 0 mm 1 mps 749 mmHg 68%
    02:00 +10°C° 0 mm 1 mps 749 mmHg 68%
    03:00 +9°C° 0 mm 1 mps 749 mmHg 68%
    04:00 +9°C° 0 mm 1 mps 749 mmHg 67%
    05:00 +9°C° 0 mm 1 mps 749 mmHg 67%
    06:00 +9°C° 0 mm 1 mps 749 mmHg 67%
    07:00 +9°C° 0 mm 1 mps 749 mmHg 67%
    08:00 +11°C° 0 mm 1 mps 749 mmHg 61%
    09:00 +14°C° 0 mm 1 mps 749 mmHg 55%
    10:00 +16°C° 0 mm 1 mps 749 mmHg 49%
    11:00 +16°C° 0 mm 1 mps 749 mmHg 47%
    12:00 +17°C° 0 mm 2 mps 749 mmHg 46%
    13:00 +18°C° 0 mm 2 mps 749 mmHg 45%
    14:00 +16°C° 0 mm 2 mps 749 mmHg 51%
    15:00 +15°C° 0 mm 2 mps 749 mmHg 58%
    16:00 +13°C° 0 mm 2 mps 749 mmHg 64%
    17:00 +13°C° 0 mm 1 mps 749 mmHg 65%
    18:00 +12°C° 0 mm 1 mps 749 mmHg 67%
    19:00 +11°C° 0 mm 1 mps 750 mmHg 68%
    20:00 +11°C° 0 mm 1 mps 750 mmHg 67%
    21:00 +11°C° 0 mm 1 mps 750 mmHg 66%
    22:00 +11°C° 0 mm 1 mps 750 mmHg 65%
    23:00 +10°C° 0 mm 1 mps 750 mmHg 64%

    24 November, Friday

    Time Temperature Precipitation Wind Pressure Humidity
    00:00 +10°C° 0 mm 1 mps 750 mmHg 63%
    01:00 +10°C° 0 mm 1 mps 750 mmHg 62%
    02:00 +10°C° 0 mm 1 mps 750 mmHg 62%
    03:00 +10°C° 0 mm 1 mps 750 mmHg 62%
    04:00 +10°C° 0 mm 1 mps 750 mmHg 62%
    05:00 +10°C° 0 mm 1 mps 750 mmHg 61%
    06:00 +10°C° 0 mm 1 mps 750 mmHg 61%
    07:00 +10°C° 0 mm 1 mps 750 mmHg 61%
    08:00 +12°C° 0 mm 1 mps 750 mmHg 55%
    09:00 +14°C° 0 mm 1 mps 750 mmHg 50%
    10:00 +16°C° 0 mm 1 mps 750 mmHg 45%
    11:00 +16°C° 0 mm 1 mps 750 mmHg 45%
    12:00 +17°C° 0 mm 2 mps 750 mmHg 44%
    13:00 +18°C° 0 mm 2 mps 749 mmHg 44%
    14:00 +16°C° 0 mm 2 mps 749 mmHg 52%
    15:00 +15°C° 0 mm 2 mps 749 mmHg 59%
    16:00 +14°C° 0 mm 2 mps 749 mmHg 67%
    17:00 +13°C° 0 mm 2 mps 750 mmHg 69%
    18:00 +12°C° 0 mm 2 mps 750 mmHg 72%
    19:00 +11°C° 0 mm 1 mps 750 mmHg 74%
    20:00 +11°C° 0 mm 1 mps 750 mmHg 73%
    21:00 +11°C° 0 mm 1 mps 751 mmHg 72%
    22:00 +11°C° 0 mm 1 mps 751 mmHg 71%
    23:00 +10°C° 0 mm 1 mps 751 mmHg 71%

    25 November, Saturday

    Time Temperature Precipitation Wind Pressure Humidity
    00:00 +10°C° 0 mm 1 mps 751 mmHg 71%
    01:00 +10°C° 0 mm 1 mps 751 mmHg 71%
    02:00 +10°C° 0 mm 1 mps 751 mmHg 71%
    03:00 +10°C° 0 mm 1 mps 751 mmHg 72%
    04:00 +10°C° 0 mm 1 mps 751 mmHg 72%
    05:00 +10°C° 0 mm 1 mps 751 mmHg 73%
    06:00 +10°C° 0 mm 1 mps 751 mmHg 73%
    07:00 +10°C° 0 mm 1 mps 752 mmHg 74%
    08:00 +12°C° 0 mm 1 mps 752 mmHg 68%
    09:00 +14°C° 0 mm 1 mps 752 mmHg 61%
    10:00 +16°C° 0 mm 1 mps 752 mmHg 55%
    11:00 +18°C° 0 mm 1 mps 752 mmHg 52%
    12:00 +18°C° 0 mm 1 mps 751 mmHg 49%
    13:00 +19°C° 0 mm 1 mps 751 mmHg 46%
    14:00 +18°C° 0 mm 1 mps 751 mmHg 52%
    15:00 +15°C° 0 mm 1 mps 751 mmHg 58%
    16:00 +14°C° 0 mm 1 mps 751 mmHg 65%
    17:00 +13°C° 0 mm 1 mps 751 mmHg 67%
    18:00 +13°C° 0 mm 1 mps 752 mmHg 70%
    19:00 +12°C° 0 mm 1 mps 752 mmHg 73%
    20:00 +12°C° 0 mm 1 mps 752 mmHg 73%
    21:00 +11°C° 0 mm 1 mps 752 mmHg 73%
    22:00 +11°C° 0 mm 1 mps 752 mmHg 73%
    23:00 +11°C° 0 mm 1 mps 752 mmHg 73%
    Show more